Time,TemperatureF,DewpointF,PressureIn,WindDirection,WindDirectionDegrees,WindSpeedMPH,WindSpeedGustMPH,Humidity,HourlyPrecipIn,Conditions,Clouds,dailyrainin,SoftwareType,DateUTC
2013-09-22 00:01:00,59.7,59.1,29.83,NNE,30,0.0,0.0,98,0.00,RA,,0.00,WeatherDisplay:10.37,2013-09-22 04:01:00,
2013-09-22 00:02:00,59.7,59.1,29.83,NNE,30,0.0,0.0,98,0.00,RA,,0.00,WeatherDisplay:10.37,2013-09-22 04:02:00,
2013-09-22 00:07:00,59.5,58.9,29.83,NNW,335,1.2,0.0,98,0.00,RA,,0.00,WeatherDisplay:10.37,2013-09-22 04:07:00,
2013-09-22 00:12:00,59.4,58.8,29.83,NNW,335,0.0,0.0,98,0.00,,,0.00,WeatherDisplay:10.37,2013-09-22 04:12:00,
2013-09-22 00:17:00,59.4,58.8,29.83,NW,310,3.5,0.0,98,0.00,,,0.00,WeatherDisplay:10.37,2013-09-22 04:17:00,
2013-09-22 00:22:00,59.3,58.7,29.84,NW,312,0.0,0.1,98,0.00,,,0.00,WeatherDisplay:10.37,2013-09-22 04:22:00,
2013-09-22 00:27:00,59.3,58.7,29.83,NW,312,0.0,0.0,98,0.00,,,0.00,WeatherDisplay:10.37,2013-09-22 04:27:00,
2013-09-22 00:32:00,59.2,58.6,29.83,NW,312,0.0,0.0,98,0.00,,,0.00,WeatherDisplay:10.37,2013-09-22 04:32:00,
2013-09-22 00:37:00,59.2,58.6,29.84,NW,312,0.0,0.0,98,0.00,,,0.00,WeatherDisplay:10.37,2013-09-22 04:37:00,
2013-09-22 00:42:00,59.3,58.7,29.83,North,356,0.0,0.0,98,0.00,,,0.00,WeatherDisplay:10.37,2013-09-22 04:42:00,
2013-09-22 00:47:00,59.3,58.7,29.83,North,360,0.0,0.0,98,0.00,,,0.00,WeatherDisplay:10.37,2013-09-22 04:47:00,
2013-09-22 00:52:00,59.2,58.6,29.84,North,360,0.0,0.0,98,0.00,,,0.00,WeatherDisplay:10.37,2013-09-22 04:52:00,
2013-09-22 00:57:00,59.1,58.5,29.84,North,356,0.0,0.0,98,0.00,,,0.00,WeatherDisplay:10.37,2013-09-22 04:57:00,
2013-09-22 01:02:00,59.0,58.4,29.83,East,83,1.2,0.0,98,0.00,,,0.00,WeatherDisplay:10.37,2013-09-22 05:02:00,
2013-09-22 01:07:00,58.8,58.0,29.84,ESE,110,4.6,4.6,97,0.00,,,0.00,WeatherDisplay:10.37,2013-09-22 05:07:00,
2013-09-22 01:12:00,58.6,57.8,29.84,ESE,110,0.0,0.0,97,0.00,,,0.00,WeatherDisplay:10.37,2013-09-22 05:12:00,
2013-09-22 01:17:00,58.5,57.9,29.83,ESE,110,0.0,0.0,98,0.00,,,0.00,WeatherDisplay:10.37,2013-09-22 05:17:00,
2013-09-22 01:22:00,58.5,57.9,29.84,ESE,110,0.0,0.0,98,0.00,,,0.00,WeatherDisplay:10.37,2013-09-22 05:22:00,
2013-09-22 01:27:00,58.5,57.9,29.83,ESE,110,0.0,0.0,98,0.00,,,0.00,WeatherDisplay:10.37,2013-09-22 05:27:00,
2013-09-22 01:32:00,58.4,57.8,29.84,ESE,109,0.0,0.0,98,0.00,,,0.00,WeatherDisplay:10.37,2013-09-22 05:32:00,
2013-09-22 01:37:00,58.3,57.5,29.84,ESE,109,0.0,0.0,97,0.00,,,0.00,WeatherDisplay:10.37,2013-09-22 05:37:00,
2013-09-22 01:42:00,58.3,57.7,29.84,ESE,110,0.0,0.0,98,0.00,,,0.00,WeatherDisplay:10.37,2013-09-22 05:42:00,
2013-09-22 01:47:00,58.2,57.6,29.84,ESE,110,0.0,0.0,98,0.00,,,0.00,WeatherDisplay:10.37,2013-09-22 05:47:00,
2013-09-22 01:52:00,58.1,57.3,29.84,ESE,109,0.0,0.0,97,0.00,,,0.00,WeatherDisplay:10.37,2013-09-22 05:52:00,
2013-09-22 01:57:00,57.8,57.0,29.84,ESE,110,0.0,0.0,97,0.00,,,0.00,WeatherDisplay:10.37,2013-09-22 05:57:00,
2013-09-22 02:02:00,57.7,56.9,29.84,ESE,110,0.0,0.0,97,0.00,,,0.00,WeatherDisplay:10.37,2013-09-22 06:02:00,
2013-09-22 02:07:00,57.5,56.7,29.84,ESE,110,0.0,0.0,97,0.00,,,0.00,WeatherDisplay:10.37,2013-09-22 06:07:00,
2013-09-22 02:12:00,57.5,56.7,29.84,ESE,110,0.0,0.0,97,0.00,,,0.00,WeatherDisplay:10.37,2013-09-22 06:12:00,
2013-09-22 02:17:00,57.4,56.6,29.84,ESE,110,0.0,0.0,97,0.00,,,0.00,WeatherDisplay:10.37,2013-09-22 06:17:00,
2013-09-22 02:22:00,57.2,56.1,29.84,ESE,110,0.0,0.0,96,0.00,,,0.00,WeatherDisplay:10.37,2013-09-22 06:22:00,
2013-09-22 02:27:00,57.0,56.2,29.84,NE,48,4.6,4.6,97,0.00,,,0.00,WeatherDisplay:10.37,2013-09-22 06:27:00,
2013-09-22 02:32:00,56.8,55.7,29.84,NE,48,0.0,0.0,96,0.00,,,0.00,WeatherDisplay:10.37,2013-09-22 06:32:00,
2013-09-22 02:37:00,56.7,55.6,29.84,NE,48,0.0,0.0,96,0.00,,,0.00,WeatherDisplay:10.37,2013-09-22 06:37:00,
2013-09-22 02:42:00,56.5,55.4,29.84,NE,48,0.0,0.0,96,0.00,,,0.00,WeatherDisplay:10.37,2013-09-22 06:42:00,
2013-09-22 02:47:00,56.3,55.2,29.84,NE,49,0.0,0.0,96,0.00,,,0.00,WeatherDisplay:10.37,2013-09-22 06:47:00,
2013-09-22 02:52:00,56.2,55.1,29.85,East,89,0.0,0.0,96,0.00,,,0.00,WeatherDisplay:10.37,2013-09-22 06:52:00,
2013-09-22 02:58:00,56.1,55.0,29.85,East,89,0.0,0.0,96,0.00,,,0.00,WeatherDisplay:10.37,2013-09-22 06:58:00,
2013-09-22 03:03:00,56.1,55.0,29.85,East,89,0.0,0.0,96,0.00,,,0.00,WeatherDisplay:10.37,2013-09-22 07:03:00,
2013-09-22 03:08:00,56.0,54.9,29.85,East,89,0.0,0.0,96,0.00,,,0.00,WeatherDisplay:10.37,2013-09-22 07:08:00,
2013-09-22 03:13:00,55.9,54.8,29.85,East,89,2.3,0.0,96,0.00,,,0.00,WeatherDisplay:10.37,2013-09-22 07:13:00,
2013-09-22 03:18:00,55.9,54.8,29.85,East,89,0.0,0.0,96,0.00,,,0.00,WeatherDisplay:10.37,2013-09-22 07:18:00,
2013-09-22 03:23:00,55.8,54.7,29.85,East,96,4.6,4.6,96,0.00,,,0.00,WeatherDisplay:10.37,2013-09-22 07:23:00,
2013-09-22 03:28:00,55.8,54.7,29.85,East,96,0.0,0.0,96,0.00,,,0.00,WeatherDisplay:10.37,2013-09-22 07:28:00,
2013-09-22 03:33:00,55.8,54.7,29.85,East,96,0.0,0.0,96,0.00,,,0.00,WeatherDisplay:10.37,2013-09-22 07:33:00,
2013-09-22 03:38:00,55.8,54.7,29.85,East,96,1.2,0.0,96,0.00,,,0.00,WeatherDisplay:10.37,2013-09-22 07:38:00,
2013-09-22 03:43:00,55.8,54.7,29.85,East,96,0.0,0.0,96,0.00,,,0.00,WeatherDisplay:10.37,2013-09-22 07:43:00,
2013-09-22 03:48:00,55.7,54.3,29.85,East,96,0.0,0.0,95,0.00,CLR,,0.00,WeatherDisplay:10.37,2013-09-22 07:48:00,
2013-09-22 03:53:00,55.6,54.5,29.85,East,96,0.0,0.0,96,0.00,,,0.00,WeatherDisplay:10.37,2013-09-22 07:53:00,
2013-09-22 03:58:00,55.6,54.5,29.85,East,96,0.0,0.0,96,0.00,,,0.00,WeatherDisplay:10.37,2013-09-22 07:58:00,
2013-09-22 04:03:00,55.5,54.4,29.85,East,96,0.0,0.0,96,0.00,,,0.00,WeatherDisplay:10.37,2013-09-22 08:03:00,
2013-09-22 04:08:00,55.4,54.3,29.85,East,96,0.0,0.0,96,0.00,,,0.00,WeatherDisplay:10.37,2013-09-22 08:08:00,
2013-09-22 04:13:00,55.4,54.3,29.85,East,96,0.0,0.0,96,0.00,,,0.00,WeatherDisplay:10.37,2013-09-22 08:13:00,
2013-09-22 04:18:00,55.3,54.5,29.85,East,96,0.0,0.0,97,0.00,,,0.00,WeatherDisplay:10.37,2013-09-22 08:18:00,
2013-09-22 04:23:00,55.3,54.5,29.85,East,96,0.0,0.0,97,0.00,,,0.00,WeatherDisplay:10.37,2013-09-22 08:23:00,
2013-09-22 04:28:00,55.3,54.5,29.85,East,96,0.0,0.0,97,0.00,,,0.00,WeatherDisplay:10.37,2013-09-22 08:28:00,
2013-09-22 04:33:00,55.2,54.4,29.85,East,96,0.0,0.0,97,0.00,,,0.00,WeatherDisplay:10.37,2013-09-22 08:33:00,
2013-09-22 04:38:00,55.1,54.3,29.85,East,96,0.0,0.0,97,0.00,,,0.00,WeatherDisplay:10.37,2013-09-22 08:38:00,
2013-09-22 04:43:00,55.1,54.3,29.85,East,96,0.0,0.0,97,0.00,,,0.00,WeatherDisplay:10.37,2013-09-22 08:43:00,
2013-09-22 04:48:00,55.0,54.4,29.85,East,95,0.0,0.0,98,0.00,,,0.00,WeatherDisplay:10.37,2013-09-22 08:48:00,
2013-09-22 04:53:00,55.0,54.4,29.85,East,95,0.0,0.0,98,0.00,,,0.00,WeatherDisplay:10.37,2013-09-22 08:53:00,
2013-09-22 04:58:00,55.0,54.4,29.85,East,95,0.0,0.0,98,0.00,,,0.00,WeatherDisplay:10.37,2013-09-22 08:58:00,
2013-09-22 05:03:00,55.0,54.4,29.85,East,95,0.0,0.0,98,0.00,,,0.00,WeatherDisplay:10.37,2013-09-22 09:03:00,
2013-09-22 05:08:00,54.9,54.3,29.85,East,95,0.0,0.0,98,0.00,,,0.00,WeatherDisplay:10.37,2013-09-22 09:08:00,
2013-09-22 05:13:00,54.8,54.2,29.86,East,95,0.0,0.0,98,0.00,,,0.00,WeatherDisplay:10.37,2013-09-22 09:13:00,
2013-09-22 05:18:00,54.7,53.9,29.86,NNE,14,1.1,1.1,97,0.00,,,0.00,WeatherDisplay:10.37,2013-09-22 09:18:00,
2013-09-22 05:23:00,54.6,54.0,29.86,NNE,15,0.0,0.0,98,0.00,,,0.00,WeatherDisplay:10.37,2013-09-22 09:23:00,
2013-09-22 05:28:00,54.7,54.1,29.86,NNE,15,0.0,0.0,98,0.00,,,0.00,WeatherDisplay:10.37,2013-09-22 09:28:00,
2013-09-22 05:33:00,54.8,54.2,29.86,NNE,15,0.0,0.0,98,0.00,,,0.00,WeatherDisplay:10.37,2013-09-22 09:33:00,
2013-09-22 05:38:00,54.8,54.2,29.86,NNE,15,0.0,0.0,98,0.00,,,0.00,WeatherDisplay:10.37,2013-09-22 09:38:00,
2013-09-22 05:43:00,54.7,54.1,29.86,NNE,15,0.0,0.0,98,0.00,,,0.00,WeatherDisplay:10.37,2013-09-22 09:43:00,
2013-09-22 05:48:00,54.7,54.1,29.86,NNE,15,0.0,0.0,98,0.00,,,0.00,WeatherDisplay:10.37,2013-09-22 09:48:00,
2013-09-22 05:53:00,54.6,54.0,29.86,NNE,15,0.0,0.0,98,0.00,,,0.00,WeatherDisplay:10.37,2013-09-22 09:53:00,
2013-09-22 05:58:00,54.6,54.0,29.86,NNE,15,0.0,0.0,98,0.00,,,0.00,WeatherDisplay:10.37,2013-09-22 09:58:00,
2013-09-22 06:03:00,54.6,54.0,29.86,NNE,15,0.0,0.0,98,0.00,,,0.00,WeatherDisplay:10.37,2013-09-22 10:03:00,
2013-09-22 06:08:00,54.6,54.0,29.86,NNE,15,0.0,0.0,98,0.00,,,0.00,WeatherDisplay:10.37,2013-09-22 10:08:00,
2013-09-22 06:13:00,54.5,53.9,29.86,NNE,15,0.0,0.0,98,0.00,,,0.00,WeatherDisplay:10.37,2013-09-22 10:13:00,
2013-09-22 06:18:00,54.4,53.8,29.86,NNE,15,0.0,0.0,98,0.00,,,0.00,WeatherDisplay:10.37,2013-09-22 10:18:00,
2013-09-22 06:23:00,54.3,53.7,29.87,NNE,15,0.0,0.0,98,0.00,,,0.00,WeatherDisplay:10.37,2013-09-22 10:23:00,
2013-09-22 06:28:00,54.3,53.7,29.87,NNE,15,0.0,0.0,98,0.00,,,0.00,WeatherDisplay:10.37,2013-09-22 10:28:00,
2013-09-22 06:33:00,54.2,53.6,29.87,NNE,15,0.0,0.0,98,0.00,,,0.00,WeatherDisplay:10.37,2013-09-22 10:33:00,
2013-09-22 06:38:00,54.2,53.6,29.87,NNE,15,0.0,0.0,98,0.00,,,0.00,WeatherDisplay:10.37,2013-09-22 10:38:00,
2013-09-22 06:43:00,54.2,53.6,29.87,NNE,15,0.0,0.0,98,0.00,,,0.00,WeatherDisplay:10.37,2013-09-22 10:43:00,
2013-09-22 06:48:00,54.2,53.6,29.87,NNE,15,0.0,0.0,98,0.00,,,0.00,WeatherDisplay:10.37,2013-09-22 10:48:00,
2013-09-22 06:53:00,54.3,53.7,29.88,NNE,15,0.0,0.0,98,0.00,,,0.00,WeatherDisplay:10.37,2013-09-22 10:53:00,
2013-09-22 06:58:00,54.1,53.5,29.88,NNE,15,0.0,0.0,98,0.00,,,0.00,WeatherDisplay:10.37,2013-09-22 10:58:00,
2013-09-22 07:03:00,54.0,53.4,29.88,NNE,15,0.0,0.0,98,0.00,,,0.00,WeatherDisplay:10.37,2013-09-22 11:03:00,
2013-09-22 07:08:00,53.9,53.3,29.88,NNE,15,0.0,0.0,98,0.00,,,0.00,WeatherDisplay:10.37,2013-09-22 11:08:00,
2013-09-22 07:13:00,53.8,53.2,29.88,NNE,15,0.0,0.0,98,0.00,,,0.00,WeatherDisplay:10.37,2013-09-22 11:13:00,
2013-09-22 07:18:00,53.8,53.2,29.88,NNE,15,0.0,0.0,98,0.00,,,0.00,WeatherDisplay:10.37,2013-09-22 11:18:00,
2013-09-22 07:23:00,53.7,53.1,29.89,NNE,15,0.0,0.0,98,0.00,,,0.00,WeatherDisplay:10.37,2013-09-22 11:23:00,
2013-09-22 07:28:00,53.6,53.0,29.89,NNE,15,0.0,0.0,98,0.00,,,0.00,WeatherDisplay:10.37,2013-09-22 11:28:00,
2013-09-22 07:33:00,53.6,53.0,29.89,NNE,15,1.2,0.0,98,0.00,,,0.00,WeatherDisplay:10.37,2013-09-22 11:33:00,
2013-09-22 07:38:00,53.5,52.9,29.89,NNE,15,0.0,0.0,98,0.00,,,0.00,WeatherDisplay:10.37,2013-09-22 11:38:00,
2013-09-22 07:43:00,53.4,52.8,29.89,NNE,15,0.0,0.0,98,0.00,,,0.00,WeatherDisplay:10.37,2013-09-22 11:43:00,
2013-09-22 07:48:00,53.3,52.8,29.89,NNE,15,0.0,0.0,98,0.00,,,0.00,WeatherDisplay:10.37,2013-09-22 11:48:00,
2013-09-22 07:53:00,53.2,52.7,29.89,NNE,15,0.0,0.0,98,0.00,,,0.00,WeatherDisplay:10.37,2013-09-22 11:53:00,
2013-09-22 07:58:00,53.1,52.6,29.89,NNE,15,0.0,0.0,98,0.00,,,0.00,WeatherDisplay:10.37,2013-09-22 11:58:00,
2013-09-22 08:03:00,53.0,52.5,29.90,NNE,15,0.0,0.0,98,0.00,,,0.00,WeatherDisplay:10.37,2013-09-22 12:03:00,
2013-09-22 08:08:00,52.9,52.4,29.90,NNE,15,0.0,0.0,98,0.00,,,0.00,WeatherDisplay:10.37,2013-09-22 12:08:00,
2013-09-22 08:13:00,52.7,52.2,29.90,NNE,15,0.0,0.0,98,0.00,,,0.00,WeatherDisplay:10.37,2013-09-22 12:13:00,
2013-09-22 08:18:00,52.7,52.2,29.90,NNE,15,0.0,0.0,98,0.00,,,0.00,WeatherDisplay:10.37,2013-09-22 12:18:00,
2013-09-22 08:23:00,52.7,52.4,29.90,NNE,15,0.0,0.0,99,0.00,,,0.00,WeatherDisplay:10.37,2013-09-22 12:23:00,
2013-09-22 08:28:00,52.7,52.4,29.91,NNE,15,0.0,0.0,99,0.00,,,0.00,WeatherDisplay:10.37,2013-09-22 12:28:00,
2013-09-22 08:33:00,52.7,52.4,29.91,NNE,15,0.0,0.0,99,0.00,,,0.00,WeatherDisplay:10.37,2013-09-22 12:33:00,
2013-09-22 08:38:00,52.8,52.5,29.91,NNE,15,0.0,0.0,99,0.00,,,0.00,WeatherDisplay:10.37,2013-09-22 12:38:00,
2013-09-22 08:43:00,52.9,52.6,29.91,NNE,15,0.0,0.0,99,0.00,,,0.00,WeatherDisplay:10.37,2013-09-22 12:43:00,
2013-09-22 08:48:00,52.9,52.6,29.92,NNE,15,0.0,0.0,99,0.00,,,0.00,WeatherDisplay:10.37,2013-09-22 12:48:00,
2013-09-22 08:53:00,52.8,52.5,29.92,NNE,15,0.0,0.0,99,0.00,,,0.00,WeatherDisplay:10.37,2013-09-22 12:53:00,
2013-09-22 08:58:00,52.8,52.5,29.92,NNE,15,0.0,0.0,99,0.00,,,0.00,WeatherDisplay:10.37,2013-09-22 12:58:00,
2013-09-22 09:03:00,53.0,52.7,29.92,NNE,15,0.0,0.0,99,0.00,,,0.00,WeatherDisplay:10.37,2013-09-22 13:03:00,
2013-09-22 09:08:00,53.2,52.9,29.92,NNE,15,0.0,0.0,99,0.00,,,0.00,WeatherDisplay:10.37,2013-09-22 13:08:00,
2013-09-22 09:13:00,53.2,52.9,29.92,NNE,15,0.0,0.0,99,0.00,,,0.00,WeatherDisplay:10.37,2013-09-22 13:13:00,
2013-09-22 09:18:00,53.2,52.9,29.92,NNE,15,0.0,0.0,99,0.00,,,0.00,WeatherDisplay:10.37,2013-09-22 13:18:00,
2013-09-22 09:23:00,53.2,52.9,29.92,NNE,15,0.0,0.0,99,0.00,,,0.00,WeatherDisplay:10.37,2013-09-22 13:23:00,
2013-09-22 09:28:00,53.2,52.9,29.92,NNE,15,0.0,0.0,99,0.00,,,0.00,WeatherDisplay:10.37,2013-09-22 13:28:00,
2013-09-22 09:33:00,53.2,52.9,29.92,NNE,15,0.0,0.0,99,0.00,,,0.00,WeatherDisplay:10.37,2013-09-22 13:33:00,
2013-09-22 09:38:00,53.1,52.8,29.92,NNE,15,0.0,0.0,99,0.00,,,0.00,WeatherDisplay:10.37,2013-09-22 13:38:00,
2013-09-22 09:43:00,53.1,52.8,29.92,NNE,15,1.2,1.2,99,0.00,,,0.00,WeatherDisplay:10.37,2013-09-22 13:43:00,
2013-09-22 09:48:00,53.1,52.8,29.92,NNE,15,0.0,0.0,99,0.00,,,0.00,WeatherDisplay:10.37,2013-09-22 13:48:00,
2013-09-22 09:53:00,53.2,52.9,29.92,NNE,15,0.0,0.0,99,0.00,,,0.00,WeatherDisplay:10.37,2013-09-22 13:53:00,
2013-09-22 09:58:00,53.3,53.0,29.92,NNE,15,0.0,0.0,99,0.00,,,0.00,WeatherDisplay:10.37,2013-09-22 13:58:00,
2013-09-22 10:03:00,53.4,53.1,29.92,NNE,15,0.0,0.0,99,0.00,,,0.00,WeatherDisplay:10.37,2013-09-22 14:03:00,
2013-09-22 10:08:00,53.6,53.3,29.92,NNE,15,0.0,0.0,99,0.00,,,0.00,WeatherDisplay:10.37,2013-09-22 14:08:00,
2013-09-22 10:13:00,53.8,53.5,29.92,NNE,15,0.0,0.0,99,0.00,,,0.00,WeatherDisplay:10.37,2013-09-22 14:13:00,
2013-09-22 10:18:00,54.0,53.7,29.93,NNE,15,0.0,0.0,99,0.00,,,0.00,WeatherDisplay:10.37,2013-09-22 14:18:00,
2013-09-22 10:23:00,54.2,53.9,29.93,NNE,15,0.0,0.0,99,0.00,,,0.00,WeatherDisplay:10.37,2013-09-22 14:23:00,
2013-09-22 10:28:00,54.4,54.1,29.93,NNE,15,0.0,0.0,99,0.00,,,0.00,WeatherDisplay:10.37,2013-09-22 14:28:00,
2013-09-22 10:33:00,54.6,54.3,29.93,NNE,15,0.0,0.0,99,0.00,,,0.00,WeatherDisplay:10.37,2013-09-22 14:33:00,
2013-09-22 10:38:00,54.8,54.5,29.93,NNE,15,0.0,0.0,99,0.00,,,0.00,WeatherDisplay:10.37,2013-09-22 14:38:00,
2013-09-22 10:43:00,54.9,54.6,29.94,NNE,15,0.0,0.0,99,0.00,,,0.00,WeatherDisplay:10.37,2013-09-22 14:43:00,
2013-09-22 10:48:00,55.0,54.7,29.94,North,360,1.2,1.2,99,0.00,,,0.00,WeatherDisplay:10.37,2013-09-22 14:48:00,
2013-09-22 10:53:00,55.2,54.9,29.94,North,356,0.0,0.0,99,0.00,,,0.00,WeatherDisplay:10.37,2013-09-22 14:53:00,
2013-09-22 10:58:00,55.3,55.0,29.94,North,3,0.0,0.0,99,0.00,,,0.00,WeatherDisplay:10.37,2013-09-22 14:58:00,
2013-09-22 11:03:00,55.3,55.0,29.94,North,4,1.2,0.0,99,0.00,,,0.00,WeatherDisplay:10.37,2013-09-22 15:03:00,
2013-09-22 11:08:00,55.4,55.1,29.94,North,4,0.0,0.0,99,0.00,,,0.00,WeatherDisplay:10.37,2013-09-22 15:08:00,
2013-09-22 11:13:00,55.6,55.3,29.94,North,4,0.0,0.0,99,0.00,,,0.00,WeatherDisplay:10.37,2013-09-22 15:13:00,
2013-09-22 11:18:00,55.9,55.6,29.94,North,4,0.0,0.0,99,0.00,,,0.00,WeatherDisplay:10.37,2013-09-22 15:18:00,
2013-09-22 11:23:00,56.2,55.6,29.94,North,4,0.0,0.0,98,0.00,,,0.00,WeatherDisplay:10.37,2013-09-22 15:23:00,
2013-09-22 11:28:00,56.5,55.7,29.94,North,6,0.0,0.0,97,0.00,,,0.00,WeatherDisplay:10.37,2013-09-22 15:28:00,
2013-09-22 11:33:00,56.9,56.1,29.94,North,6,0.0,0.0,97,0.00,,,0.00,WeatherDisplay:10.37,2013-09-22 15:33:00,
2013-09-22 11:38:00,57.2,56.1,29.93,North,6,0.0,0.0,96,0.00,,,0.00,WeatherDisplay:10.37,2013-09-22 15:38:00,
2013-09-22 11:43:00,57.5,55.8,29.94,North,6,1.2,0.0,94,0.00,CLR,,0.00,WeatherDisplay:10.37,2013-09-22 15:43:00,
2013-09-22 11:48:00,57.7,55.7,29.94,North,6,1.2,0.0,93,0.00,CLR,,0.00,WeatherDisplay:10.37,2013-09-22 15:48:00,
2013-09-22 11:53:00,57.9,55.3,29.93,North,6,0.0,0.0,91,0.00,CLR,,0.00,WeatherDisplay:10.37,2013-09-22 15:53:00,
2013-09-22 11:58:00,58.1,55.5,29.94,North,6,0.0,0.0,91,0.00,CLR,,0.00,WeatherDisplay:10.37,2013-09-22 15:58:00,
2013-09-22 12:03:00,58.4,55.5,29.94,North,6,0.0,0.0,90,0.00,CLR,,0.00,WeatherDisplay:10.37,2013-09-22 16:03:00,
2013-09-22 12:08:00,58.8,55.9,29.94,North,8,1.2,0.0,90,0.00,CLR,,0.00,WeatherDisplay:10.37,2013-09-22 16:08:00,
2013-09-22 12:13:00,59.1,56.2,29.94,North,8,0.0,0.0,90,0.00,CLR,,0.00,WeatherDisplay:10.37,2013-09-22 16:13:00,
2013-09-22 12:18:00,59.5,56.3,29.94,North,8,1.2,0.0,89,0.00,CLR,,0.00,WeatherDisplay:10.37,2013-09-22 16:18:00,
2013-09-22 12:23:00,59.8,56.2,29.94,North,8,0.0,0.0,88,0.00,CLR,,0.00,WeatherDisplay:10.37,2013-09-22 16:23:00,
2013-09-22 12:28:00,60.1,56.2,29.94,North,8,0.0,0.0,87,0.00,CLR,,0.00,WeatherDisplay:10.37,2013-09-22 16:28:00,
2013-09-22 12:33:00,60.6,57.0,29.94,North,8,0.0,0.0,88,0.00,CLR,,0.00,WeatherDisplay:10.37,2013-09-22 16:33:00,
2013-09-22 12:38:00,61.1,57.2,29.94,North,8,0.0,0.0,87,0.00,CLR,,0.00,WeatherDisplay:10.37,2013-09-22 16:38:00,
2013-09-22 12:43:00,61.6,58.0,29.94,North,8,0.0,0.0,88,0.00,CLR,,0.00,WeatherDisplay:10.37,2013-09-22 16:43:00,
2013-09-22 12:48:00,62.1,58.2,29.94,North,8,0.0,0.0,87,0.00,CLR,,0.00,WeatherDisplay:10.37,2013-09-22 16:48:00,
2013-09-22 12:53:00,62.5,57.9,29.94,NNE,17,0.0,0.0,85,0.00,CLR,,0.00,WeatherDisplay:10.37,2013-09-22 16:53:00,
2013-09-22 12:58:00,63.0,56.4,29.94,NNE,19,1.2,0.0,79,0.00,CLR,,0.00,WeatherDisplay:10.37,2013-09-22 16:58:00,
2013-09-22 13:03:00,63.4,57.1,29.94,NNE,19,0.0,0.0,80,0.00,CLR,,0.00,WeatherDisplay:10.37,2013-09-22 17:03:00,
2013-09-22 13:08:00,63.8,57.2,29.94,NNE,19,0.0,0.0,79,0.00,CLR,,0.00,WeatherDisplay:10.37,2013-09-22 17:08:00,
2013-09-22 13:13:00,64.3,57.3,29.94,NNE,19,0.0,0.0,78,0.00,CLR,,0.00,WeatherDisplay:10.37,2013-09-22 17:13:00,
2013-09-22 13:18:00,64.8,57.4,29.93,NNE,19,0.0,0.0,77,0.00,CLR,,0.00,WeatherDisplay:10.37,2013-09-22 17:18:00,
2013-09-22 13:23:00,65.2,58.5,29.94,NNE,19,0.0,0.0,79,0.00,CLR,,0.00,WeatherDisplay:10.37,2013-09-22 17:23:00,
2013-09-22 13:28:00,65.6,58.9,29.94,NNE,19,0.0,0.0,79,0.00,CLR,,0.00,WeatherDisplay:10.37,2013-09-22 17:28:00,
2013-09-22 13:33:00,65.9,59.2,29.93,NNE,20,0.0,0.0,79,0.00,CLR,,0.00,WeatherDisplay:10.37,2013-09-22 17:33:00,
2013-09-22 13:38:00,66.2,59.1,29.93,NNE,19,0.0,0.0,78,0.00,CLR,,0.00,WeatherDisplay:10.37,2013-09-22 17:38:00,
2013-09-22 13:43:00,66.4,59.7,29.93,NNE,19,0.0,0.0,79,0.00,CLR,,0.00,WeatherDisplay:10.37,2013-09-22 17:43:00,
2013-09-22 13:49:00,66.6,59.5,29.93,North,11,0.0,0.0,78,0.00,CLR,,0.00,WeatherDisplay:10.37,2013-09-22 17:49:00,
2013-09-22 13:54:00,66.7,60.0,29.92,North,1,0.0,0.0,79,0.00,CLR,,0.00,WeatherDisplay:10.37,2013-09-22 17:54:00,
2013-09-22 13:59:00,66.8,60.4,29.92,North,1,0.0,0.0,80,0.00,CLR,,0.00,WeatherDisplay:10.37,2013-09-22 17:59:00,
2013-09-22 14:04:00,66.9,60.5,29.92,North,1,0.0,0.0,80,0.00,CLR,,0.00,WeatherDisplay:10.37,2013-09-22 18:04:00,
2013-09-22 14:09:00,66.9,59.8,29.92,North,1,0.0,0.0,78,0.00,CLR,,0.00,WeatherDisplay:10.37,2013-09-22 18:09:00,
2013-09-22 14:14:00,67.0,59.5,29.92,NNW,346,1.2,0.0,77,0.00,CLR,,0.00,WeatherDisplay:10.37,2013-09-22 18:14:00,
2013-09-22 14:19:00,67.1,60.0,29.92,WNW,299,0.0,0.1,78,0.00,CLR,,0.00,WeatherDisplay:10.37,2013-09-22 18:19:00,
2013-09-22 14:24:00,67.1,59.3,29.91,WNW,299,0.0,0.1,76,0.00,CLR,,0.00,WeatherDisplay:10.37,2013-09-22 18:24:00,
2013-09-22 14:29:00,67.3,60.6,29.91,WNW,299,0.0,0.0,79,0.00,CLR,,0.00,WeatherDisplay:10.37,2013-09-22 18:29:00,
2013-09-22 14:34:00,67.5,61.5,29.91,WNW,299,1.2,0.0,81,0.00,CLR,,0.00,WeatherDisplay:10.37,2013-09-22 18:34:00,
2013-09-22 14:39:00,67.6,61.2,29.91,WNW,299,1.2,0.0,80,0.00,CLR,,0.00,WeatherDisplay:10.37,2013-09-22 18:39:00,
2013-09-22 14:44:00,67.8,62.4,29.91,WNW,299,0.0,0.0,83,0.00,CLR,,0.00,WeatherDisplay:10.37,2013-09-22 18:44:00,
2013-09-22 14:49:00,67.9,62.5,29.91,NW,306,0.0,0.0,83,0.00,CLR,,0.00,WeatherDisplay:10.37,2013-09-22 18:49:00,
2013-09-22 14:54:00,68.0,60.9,29.91,NW,305,0.0,0.0,78,0.00,CLR,,0.00,WeatherDisplay:10.37,2013-09-22 18:54:00,
2013-09-22 14:59:00,68.1,61.3,29.91,NW,306,0.0,0.0,79,0.00,CLR,,0.00,WeatherDisplay:10.37,2013-09-22 18:59:00,
2013-09-22 15:04:00,68.2,61.4,29.91,ENE,69,2.3,2.3,79,0.00,CLR,,0.00,WeatherDisplay:10.37,2013-09-22 19:04:00,
2013-09-22 15:09:00,68.2,60.7,29.91,ENE,62,0.0,0.0,77,0.00,CLR,,0.00,WeatherDisplay:10.37,2013-09-22 19:09:00,
2013-09-22 15:14:00,68.2,60.3,29.91,ENE,62,1.2,0.0,76,0.00,CLR,,0.00,WeatherDisplay:10.37,2013-09-22 19:14:00,
2013-09-22 15:19:00,68.2,61.8,29.91,NNE,13,0.0,0.0,80,0.00,CLR,,0.00,WeatherDisplay:10.37,2013-09-22 19:19:00,
2013-09-22 15:24:00,68.2,61.1,29.91,WNW,291,1.2,1.2,78,0.00,CLR,,0.00,WeatherDisplay:10.37,2013-09-22 19:24:00,
2013-09-22 15:29:00,68.2,60.7,29.91,WNW,296,0.0,0.0,77,0.00,CLR,,0.00,WeatherDisplay:10.37,2013-09-22 19:29:00,
2013-09-22 15:34:00,68.3,60.8,29.91,NNW,331,0.0,0.0,77,0.00,CLR,,0.00,WeatherDisplay:10.37,2013-09-22 19:34:00,
2013-09-22 15:39:00,68.4,61.3,29.91,NNW,330,1.2,1.2,78,0.00,CLR,,0.00,WeatherDisplay:10.37,2013-09-22 19:39:00,
2013-09-22 15:44:00,68.4,61.6,29.90,NNW,330,0.0,0.0,79,0.00,CLR,,0.00,WeatherDisplay:10.37,2013-09-22 19:44:00,
2013-09-22 15:49:00,68.3,60.8,29.91,NW,306,0.0,0.0,77,0.00,CLR,,0.00,WeatherDisplay:10.37,2013-09-22 19:49:00,
2013-09-22 15:54:00,68.3,60.8,29.90,WNW,302,0.0,0.0,77,0.00,CLR,,0.00,WeatherDisplay:10.37,2013-09-22 19:54:00,
2013-09-22 15:59:00,68.3,61.5,29.90,WNW,303,1.2,1.2,79,0.00,CLR,,0.00,WeatherDisplay:10.37,2013-09-22 19:59:00,
2013-09-22 16:04:00,68.4,60.9,29.90,NW,306,0.0,0.0,77,0.00,CLR,,0.00,WeatherDisplay:10.37,2013-09-22 20:04:00,
2013-09-22 16:09:00,68.5,62.1,29.90,North,360,1.2,0.0,80,0.00,CLR,,0.00,WeatherDisplay:10.37,2013-09-22 20:09:00,
2013-09-22 16:14:00,68.6,61.8,29.90,WNW,283,1.2,1.2,79,0.00,CLR,,0.00,WeatherDisplay:10.37,2013-09-22 20:14:00,
2013-09-22 16:19:00,68.6,60.7,29.90,NW,311,0.0,0.0,76,0.00,CLR,,0.00,WeatherDisplay:10.37,2013-09-22 20:19:00,
2013-09-22 16:24:00,68.6,61.1,29.90,NW,307,1.2,1.2,77,0.00,CLR,,0.00,WeatherDisplay:10.37,2013-09-22 20:24:00,
2013-09-22 16:29:00,68.7,61.6,29.90,NW,308,1.2,0.0,78,0.00,CLR,,0.00,WeatherDisplay:10.37,2013-09-22 20:29:00,
2013-09-22 16:34:00,68.6,60.4,29.90,NW,307,3.3,3.3,75,0.00,CLR,,0.00,WeatherDisplay:10.37,2013-09-22 20:34:00,
2013-09-22 16:39:00,68.6,60.7,29.90,NNW,332,0.0,0.0,76,0.00,CLR,,0.00,WeatherDisplay:10.37,2013-09-22 20:39:00,
2013-09-22 16:44:00,68.6,60.4,29.90,NW,318,1.2,0.0,75,0.00,CLR,,0.00,WeatherDisplay:10.37,2013-09-22 20:44:00,
2013-09-22 16:49:00,68.6,60.7,29.90,North,4,5.8,5.8,76,0.00,CLR,,0.00,WeatherDisplay:10.37,2013-09-22 20:49:00,
2013-09-22 16:55:00,68.6,61.1,29.90,North,5,0.0,0.0,77,0.00,CLR,,0.00,WeatherDisplay:10.37,2013-09-22 20:55:00,
2013-09-22 17:00:00,68.6,60.0,29.90,NW,325,1.2,0.0,74,0.00,CLR,,0.00,WeatherDisplay:10.37,2013-09-22 21:00:00,
2013-09-22 17:05:00,68.5,59.9,29.90,NW,324,0.0,0.0,74,0.00,CLR,,0.00,WeatherDisplay:10.37,2013-09-22 21:05:00,
2013-09-22 17:10:00,68.5,60.6,29.90,NW,321,1.2,0.0,76,0.00,CLR,,0.00,WeatherDisplay:10.37,2013-09-22 21:10:00,
2013-09-22 17:15:00,68.4,60.2,29.90,NW,317,0.0,0.0,75,0.00,CLR,,0.00,WeatherDisplay:10.37,2013-09-22 21:15:00,
2013-09-22 17:20:00,68.4,60.5,29.90,WNW,302,1.2,0.0,76,0.00,CLR,,0.00,WeatherDisplay:10.37,2013-09-22 21:20:00,
2013-09-22 17:25:00,68.3,60.1,29.90,WNW,299,0.0,0.0,75,0.00,CLR,,0.00,WeatherDisplay:10.37,2013-09-22 21:25:00,
2013-09-22 17:30:00,68.2,60.0,29.90,West,266,0.0,0.0,75,0.00,CLR,,0.00,WeatherDisplay:10.37,2013-09-22 21:30:00,
2013-09-22 17:35:00,68.1,58.7,29.90,WNW,287,1.2,0.0,72,0.00,CLR,,0.00,WeatherDisplay:10.37,2013-09-22 21:35:00,
2013-09-22 17:40:00,67.9,58.9,29.90,NW,319,0.0,0.0,73,0.00,CLR,,0.00,WeatherDisplay:10.37,2013-09-22 21:40:00,
2013-09-22 17:45:00,67.8,58.8,29.91,NW,319,1.2,0.0,73,0.00,CLR,,0.00,WeatherDisplay:10.37,2013-09-22 21:45:00,
2013-09-22 17:50:00,67.8,59.2,29.90,NW,306,0.0,0.0,74,0.00,CLR,,0.00,WeatherDisplay:10.37,2013-09-22 21:50:00,
2013-09-22 17:55:00,67.7,59.5,29.91,North,6,0.0,0.0,75,0.00,CLR,,0.00,WeatherDisplay:10.37,2013-09-22 21:55:00,
2013-09-22 18:00:00,67.6,60.1,29.91,NNW,346,0.0,0.0,77,0.00,CLR,,0.00,WeatherDisplay:10.37,2013-09-22 22:00:00,
2013-09-22 18:05:00,67.4,60.3,29.91,NNW,346,0.0,0.0,78,0.00,CLR,,0.00,WeatherDisplay:10.37,2013-09-22 22:05:00,
2013-09-22 18:10:00,67.4,60.7,29.91,NNW,346,0.0,0.0,79,0.00,CLR,,0.00,WeatherDisplay:10.37,2013-09-22 22:10:00,
2013-09-22 18:15:00,67.2,60.1,29.91,NNW,346,0.0,0.0,78,0.00,CLR,,0.00,WeatherDisplay:10.37,2013-09-22 22:15:00,
2013-09-22 18:20:00,67.1,60.4,29.91,NNE,21,0.0,0.0,79,0.00,CLR,,0.00,WeatherDisplay:10.37,2013-09-22 22:20:00,
2013-09-22 18:25:00,66.9,59.5,29.91,WNW,302,0.0,0.0,77,0.00,CLR,,0.00,WeatherDisplay:10.37,2013-09-22 22:25:00,
2013-09-22 18:30:00,66.7,59.6,29.91,NW,324,1.2,0.0,78,0.00,CLR,,0.00,WeatherDisplay:10.37,2013-09-22 22:30:00,
2013-09-22 18:35:00,66.6,59.9,29.91,NNW,327,0.0,0.0,79,0.00,CLR,,0.00,WeatherDisplay:10.37,2013-09-22 22:35:00,
2013-09-22 18:40:00,66.4,60.4,29.91,East,83,0.0,0.0,81,0.00,CLR,,0.00,WeatherDisplay:10.37,2013-09-22 22:40:00,
2013-09-22 18:45:00,66.2,59.8,29.91,ENE,73,0.0,0.0,80,0.00,CLR,,0.00,WeatherDisplay:10.37,2013-09-22 22:45:00,
2013-09-22 18:50:00,66.0,58.6,29.91,ESE,123,5.8,5.8,77,0.00,CLR,,0.00,WeatherDisplay:10.37,2013-09-22 22:50:00,
2013-09-22 18:55:00,65.7,58.7,29.91,SE,124,0.0,0.0,78,0.00,CLR,,0.00,WeatherDisplay:10.37,2013-09-22 22:55:00,
2013-09-22 19:00:00,65.3,58.6,29.91,SE,125,1.2,0.0,79,0.00,CLR,,0.00,WeatherDisplay:10.37,2013-09-22 23:00:00,
2013-09-22 19:05:00,64.9,58.6,29.92,SE,125,0.0,0.0,80,0.00,CLR,,0.00,WeatherDisplay:10.37,2013-09-22 23:05:00,
2013-09-22 19:10:00,64.6,57.9,29.92,SSE,168,1.2,0.0,79,0.00,CLR,,0.00,WeatherDisplay:10.37,2013-09-22 23:10:00,
2013-09-22 19:15:00,64.3,58.3,29.92,SSE,164,0.0,0.2,81,0.00,CLR,,0.00,WeatherDisplay:10.37,2013-09-22 23:15:00,
2013-09-22 19:20:00,64.0,58.1,29.92,SW,231,0.0,0.0,81,0.00,CLR,,0.00,WeatherDisplay:10.37,2013-09-22 23:20:00,
2013-09-22 19:25:00,63.7,58.1,29.92,SW,232,0.0,0.0,82,0.00,CLR,,0.00,WeatherDisplay:10.37,2013-09-22 23:25:00,
2013-09-22 19:30:00,63.5,57.9,29.92,SW,232,1.2,0.0,82,0.00,CLR,,0.00,WeatherDisplay:10.37,2013-09-22 23:30:00,
2013-09-22 19:35:00,63.3,57.4,29.92,SSW,202,0.0,0.0,81,0.00,CLR,,0.00,WeatherDisplay:10.37,2013-09-22 23:35:00,
2013-09-22 19:40:00,63.1,57.5,29.92,SSW,202,0.0,0.0,82,0.00,CLR,,0.00,WeatherDisplay:10.37,2013-09-22 23:40:00,
2013-09-22 19:45:00,63.0,57.4,29.92,SSW,202,0.0,0.0,82,0.00,CLR,,0.00,WeatherDisplay:10.37,2013-09-22 23:45:00,
2013-09-22 19:50:00,62.8,57.2,29.92,SE,141,1.2,0.0,82,0.00,CLR,,0.00,WeatherDisplay:10.37,2013-09-22 23:50:00,
2013-09-22 19:55:00,62.6,57.0,29.92,SE,141,1.1,1.1,82,0.00,CLR,,0.00,WeatherDisplay:10.37,2013-09-22 23:55:00,
2013-09-22 20:00:00,62.5,57.3,29.92,SE,139,0.0,0.0,83,0.00,CLR,,0.00,WeatherDisplay:10.37,2013-09-23 00:00:00,
2013-09-22 20:05:00,62.4,57.2,29.92,SE,139,0.0,0.0,83,0.00,CLR,,0.00,WeatherDisplay:10.37,2013-09-23 00:05:00,
2013-09-22 20:10:00,62.4,57.5,29.92,SE,139,0.0,2.0,84,0.00,CLR,CLR,0.00,WeatherDisplay:10.37,2013-09-23 00:10:00,
2013-09-22 20:15:00,62.2,57.3,29.93,SE,139,0.0,1.0,84,0.00,CLR,CLR,0.00,WeatherDisplay:10.37,2013-09-23 00:15:00,
2013-09-22 20:20:00,62.1,57.2,29.93,SE,130,0.0,3.0,84,0.00,CLR,CLR,0.00,WeatherDisplay:10.37,2013-09-23 00:20:00,
2013-09-22 20:25:00,62.0,57.1,29.93,NNW,338,0.0,1.0,84,0.00,CLR,CLR,0.00,WeatherDisplay:10.37,2013-09-23 00:25:00,
2013-09-22 20:30:00,61.9,57.0,29.93,NW,321,0.0,2.0,84,0.00,CLR,CLR,0.00,WeatherDisplay:10.37,2013-09-23 00:30:00,
2013-09-22 20:35:00,61.7,56.8,29.93,SE,135,6.9,6.9,84,0.00,CLR,,0.00,WeatherDisplay:10.37,2013-09-23 00:35:00,
2013-09-22 20:40:00,61.6,56.7,29.94,East,94,1.2,1.2,84,0.00,CLR,,0.00,WeatherDisplay:10.37,2013-09-23 00:40:00,
2013-09-22 20:45:00,61.7,56.8,29.94,ESE,103,1.2,0.0,84,0.00,CLR,,0.00,WeatherDisplay:10.37,2013-09-23 00:45:00,
2013-09-22 20:50:00,61.6,56.7,29.94,SE,128,0.0,0.0,84,0.00,CLR,,0.00,WeatherDisplay:10.37,2013-09-23 00:50:00,
2013-09-22 20:55:00,61.6,56.7,29.94,SE,127,0.0,0.0,84,0.00,CLR,,0.00,WeatherDisplay:10.37,2013-09-23 00:55:00,
2013-09-22 21:01:00,61.6,56.7,29.94,SE,127,0.0,0.0,84,0.00,CLR,,0.00,WeatherDisplay:10.37,2013-09-23 01:01:00,
2013-09-22 21:06:00,61.6,57.0,29.95,NNE,15,0.0,0.0,85,0.00,CLR,,0.00,WeatherDisplay:10.37,2013-09-23 01:06:00,
2013-09-22 21:11:00,61.6,57.0,29.95,WSW,240,0.0,0.0,85,0.00,CLR,,0.00,WeatherDisplay:10.37,2013-09-23 01:11:00,
2013-09-22 21:16:00,61.3,57.4,29.95,WSW,240,0.0,0.0,87,0.00,CLR,,0.00,WeatherDisplay:10.37,2013-09-23 01:16:00,
2013-09-22 21:21:00,60.9,57.0,29.95,WSW,239,0.0,0.0,87,0.00,CLR,,0.00,WeatherDisplay:10.37,2013-09-23 01:21:00,
2013-09-22 21:26:00,60.6,56.7,29.95,NE,48,0.0,0.0,87,0.00,CLR,,0.00,WeatherDisplay:10.37,2013-09-23 01:26:00,
2013-09-22 21:31:00,60.4,56.8,29.95,NE,48,1.2,0.0,88,0.00,CLR,,0.00,WeatherDisplay:10.37,2013-09-23 01:31:00,
2013-09-22 21:36:00,60.1,56.8,29.96,NE,48,0.0,0.0,89,0.00,CLR,,0.00,WeatherDisplay:10.37,2013-09-23 01:36:00,
2013-09-22 21:41:00,59.9,56.6,29.96,NE,48,0.0,0.0,89,0.00,CLR,,0.00,WeatherDisplay:10.37,2013-09-23 01:41:00,
2013-09-22 21:46:00,59.7,56.5,29.96,NE,48,0.0,0.0,89,0.00,CLR,,0.00,WeatherDisplay:10.37,2013-09-23 01:46:00,
2013-09-22 21:51:00,59.5,56.3,29.96,NE,48,0.0,0.0,89,0.00,CLR,,0.00,WeatherDisplay:10.37,2013-09-23 01:51:00,
2013-09-22 21:56:00,59.4,56.2,29.96,NE,48,0.0,0.0,89,0.00,CLR,,0.00,WeatherDisplay:10.37,2013-09-23 01:56:00,
2013-09-22 22:01:00,59.4,56.5,29.96,NE,48,0.0,0.0,90,0.00,CLR,,0.00,WeatherDisplay:10.37,2013-09-23 02:01:00,
2013-09-22 22:06:00,59.3,56.7,29.96,NE,48,0.0,0.0,91,0.00,CLR,,0.00,WeatherDisplay:10.37,2013-09-23 02:06:00,
2013-09-22 22:11:00,59.1,56.5,29.96,NE,48,0.0,0.0,91,0.00,CLR,,0.00,WeatherDisplay:10.37,2013-09-23 02:11:00,
2013-09-22 22:16:00,59.0,56.4,29.96,NE,48,0.0,0.0,91,0.00,CLR,,0.00,WeatherDisplay:10.37,2013-09-23 02:16:00,
2013-09-22 22:21:00,58.9,56.6,29.96,NE,48,0.0,0.0,92,0.00,CLR,,0.00,WeatherDisplay:10.37,2013-09-23 02:21:00,
2013-09-22 22:26:00,58.8,56.5,29.97,NE,48,0.0,0.0,92,0.00,CLR,,0.00,WeatherDisplay:10.37,2013-09-23 02:26:00,
2013-09-22 22:31:00,58.6,56.3,29.97,NE,48,0.0,0.0,92,0.00,CLR,,0.00,WeatherDisplay:10.37,2013-09-23 02:31:00,
2013-09-22 22:36:00,58.5,56.2,29.97,NE,48,0.0,0.0,92,0.00,CLR,,0.00,WeatherDisplay:10.37,2013-09-23 02:36:00,
2013-09-22 22:41:00,58.4,56.4,29.97,NE,48,0.0,0.0,93,0.00,CLR,,0.00,WeatherDisplay:10.37,2013-09-23 02:41:00,
2013-09-22 22:46:00,58.3,56.3,29.97,NE,48,0.0,0.0,93,0.00,CLR,,0.00,WeatherDisplay:10.37,2013-09-23 02:46:00,
2013-09-22 22:52:00,58.2,56.2,29.97,NE,48,0.0,0.0,93,0.00,CLR,,0.00,WeatherDisplay:10.37,2013-09-23 02:52:00,
2013-09-22 22:57:00,58.0,56.0,29.97,NE,48,0.0,0.0,93,0.00,CLR,,0.00,WeatherDisplay:10.37,2013-09-23 02:57:00,
2013-09-22 23:02:00,57.9,56.2,29.97,NE,48,0.0,0.0,94,0.00,CLR,,0.00,WeatherDisplay:10.37,2013-09-23 03:02:00,
2013-09-22 23:07:00,57.7,56.0,29.97,NE,48,0.0,0.0,94,0.00,CLR,,0.00,WeatherDisplay:10.37,2013-09-23 03:07:00,
2013-09-22 23:12:00,57.6,55.9,29.98,NE,48,0.0,0.0,94,0.00,CLR,,0.00,WeatherDisplay:10.37,2013-09-23 03:12:00,
2013-09-22 23:17:00,57.5,55.8,29.98,NE,48,0.0,0.0,94,0.00,CLR,,0.00,WeatherDisplay:10.37,2013-09-23 03:17:00,
2013-09-22 23:22:00,57.5,55.8,29.98,NE,48,0.0,0.0,94,0.00,CLR,,0.00,WeatherDisplay:10.37,2013-09-23 03:22:00,
2013-09-22 23:27:00,57.4,55.7,29.98,NE,48,0.0,0.0,94,0.00,CLR,,0.00,WeatherDisplay:10.37,2013-09-23 03:27:00,
2013-09-22 23:32:00,57.4,56.0,29.98,NE,48,0.0,0.0,95,0.00,CLR,,0.00,WeatherDisplay:10.37,2013-09-23 03:32:00,
2013-09-22 23:37:00,57.3,55.9,29.98,NE,48,0.0,0.0,95,0.00,CLR,,0.00,WeatherDisplay:10.37,2013-09-23 03:37:00,
2013-09-22 23:42:00,57.2,55.8,29.98,NE,48,0.0,0.0,95,0.00,CLR,,0.00,WeatherDisplay:10.37,2013-09-23 03:42:00,
2013-09-22 23:47:00,57.2,55.8,29.98,NE,48,0.0,0.0,95,0.00,CLR,,0.00,WeatherDisplay:10.37,2013-09-23 03:47:00,
2013-09-22 23:52:00,57.1,55.7,29.98,NE,48,0.0,0.0,95,0.00,CLR,,0.00,WeatherDisplay:10.37,2013-09-23 03:52:00,
2013-09-22 23:57:00,57.0,55.6,29.99,NE,48,0.0,0.0,95,0.00,CLR,,0.00,WeatherDisplay:10.37,2013-09-23 03:57:00,